星链-30268 (STARLINK-30268 )

导读 | 豆包AI

STARLINK-30268是美国太空探索技术公司SpaceX星链星座中的一颗卫星,于2023年8月8日发射升空。它属于星链计划第二代部署批次,主要为全球用户提供高速卫星互联网接入服务,尤其服务地面网络覆盖不足的偏远地区,延续星链星座低轨部署、规模化组网的技术路线,支撑星链全球通信服务能力扩展。

基本信息
目录编号:
57531
目录名称:
STARLINK-30268
国际标识:
2023-115L
轨道中心:
EARTH
卫星名称:
星链-30268
卫星全名:
星链-30268 (STARLINK-30268 )
卫星状态:
在轨 (已飞行996 天)
发射日期:
2023-08-08 UTC
国别 :
美国 (US)
星等 :
--
轨道信息
数据来源 国际轨道数据
星历时间: 2026-04-30T12:37:50+0800
11小时前
查看轨道信息
半长轴: 6861.199km
偏心率: 0.000143
轨道倾角: 43.005°
近地点辐角 264.750°
升交点赤经 71.121°
平近点角 95.319°
近地点: 482.08km
远地点: 484.044km
周期: 94.267分钟
每日圈数: 15.275758
详细信息
固有亮度:
5
最大亮度:
0.3
卫星平台:
Starlink v2.0 mini
覆盖范围:
全球
运营商:
太空探索技术公司
运营商所在国:
美国
制造商(研发单位):
太空探索技术公司
制造商所在国:
美国
使用方式:
暂无
卫星简介
星链(Starlink)计划是由太空探索技术公司(SpaceX)提出的一个巨型低轨卫星互联网星座项目,计划在2019年至2024年间在太空搭建由约1.2万颗卫星组成的“星链”网络,其中1584颗将部署在地球上空550千米处的近地轨道,并从2020年开始工作。该卫星仍在工作。
2D轨道图
3D轨道图
轨道高度分析图
轨道倾角分析图
轨道综合分析图
查看轨道综合分析图